Regional Weather Roundup
Issued by NWS

Home | Current Version | Previous Version | Text Only | Print | Product List | Glossary On
Versions: 1 2 3 4 5 6 7 8 9 10 11 12 13 14 15 16 17 18 19 20 21 22 23 24 25 26 27 28 29 30 31 32 33 34 35 36 37 38 39 40 41 42 43 44 45 46 47 48 49 50
000
ASUS43 KBIS 031110
RWRND

NORTH DAKOTA REGIONAL WEATHER ROUNDUP
NATIONAL WEATHER SERVICE BISMARCK ND
600 AM CDT WED JUN 03 2015

NOTE: "FAIR" INDICATES FEW OR NO CLOUDS BELOW 12,000 FEET WITH NO
SIGNIFICANT WEATHER AND/OR OBSTRUCTIONS TO VISIBILITY.


NDZ001>003-009>011-017-031200-
NORTHWEST NORTH DAKOTA

CITY           SKY/WX    TMP DP  RH WIND       PRES   REMARKS
WILLISTON      PTCLDY    49  46  90 N6        29.99R
MINOT          CLOUDY    48  46  93 N3        29.96R
MINOT AFB      CLOUDY    50  50 100 N8        29.96R
$$

NDZ018>021-031>035-040>046-031200-
SOUTHWEST NORTH DAKOTA

CITY           SKY/WX    TMP DP  RH WIND       PRES   REMARKS
BISMARCK       CLOUDY    52  49  89 N16G24    29.88R
DICKINSON      CLOUDY    51  48  89 N15       29.95R
GARRISON         N/A     48  44  86 NE14G28   29.94R
HETTINGER ARPT CLOUDY    54  50  86 N10       29.94R
$$

NDZ004>008-012>016-024-026-027-054-031200-
NORTHEAST NORTH DAKOTA

CITY           SKY/WX    TMP DP  RH WIND       PRES   REMARKS
GRAND FORKS    CLOUDY    55  53  93 N14       29.76R
GRND FRKS AFB  CLOUDY    53  51  92 N13G18    29.78R
DEVILS LAKE    CLOUDY    48  37  66 N23G29    29.85R
$$

NDZ022-023-025-028>030-036>039-047>053-031200-
SOUTHEAST NORTH DAKOTA

CITY           SKY/WX    TMP DP  RH WIND       PRES   REMARKS
FARGO          CLOUDY    62  60  93 W14       29.71R
JAMESTOWN      CLOUDY    61  59  93 N10       29.78R
$$



USA.gov is the U.S. government's official web portal to all federal, state and local government web resources and services.